Regional Weather Roundup
Issued by NWS

Home | Current Version | Previous Version | Text Only | Print | Product List | Glossary Off
Versions: 1 2 3 4 5 6 7 8 9 10 11 12 13 14 15 16 17 18 19 20 21 22 23 24 25 26 27 28 29 30 31 32 33 34 35 36 37 38 39 40 41 42 43 44 45 46 47 48 49 50

000
ASUS43 KLMK 231710
RWRKY
KENTUCKY REGIONAL WEATHER ROUNDUP
NATIONAL WEATHER SERVICE LOUISVILLE KY
1200 PM EST FRI FEB 23 2018

NOTE "FAIR" INDICATES FEW OR NO CLOUDS BELOW 12,000 FEET
WITH NO SIGNIFICANT WEATHER AND/OR OBSTRUCTIONS TO VISIBILITY.

KYZ001>023-026-027-061>063-070>075-231800-
WESTERN AND SOUTH CENTRAL KENTUCKY

CITY           SKY/WX    TMP DP  RH WIND       PRES   REMARKS
PADUCAH        CLOUDY    55  53  93 W5        30.29S
HENDERSON      LGT RAIN  52  50  93 MISG      30.30F
OWENSBORO      CLOUDY    55  53  93 N12       30.27F
HOPKINSVILLE   FAIR      68  65  91 SW10      30.30S
BOWLING GREEN  PTSUNNY   67  65  93 SW8       30.31F
GLASGOW        CLOUDY    70  61  75 W13       30.33S
$$

KYZ024-025-028>034-038-045-046-053-231800-
NORTH CENTRAL KENTUCKY

CITY           SKY/WX    TMP DP  RH WIND       PRES   REMARKS
LOUISVILLE/SDF LGT RAIN  65  61  87 SW14      30.28R
LOUISVILLE/LOU LGT RAIN  64  63  96 SW9       30.29R
FORT KNOX      LGT RAIN  62  62 100 S15       30.30R
$$

KYZ035>037-039>044-047>052-055>060-089>105-231800-
NORTHEAST KENTUCKY

CITY           SKY/WX    TMP DP  RH WIND       PRES   REMARKS
LEXINGTON      LGT RAIN  63  60  90 SW9       30.32S
COVINGTON      LGT RAIN  61  60  97 SW15G22   30.24R FOG
FRANKFORT      LGT RAIN  63  59  87 SW12G21   30.29R
$$

KYZ054-064>069-076>088-106>120-231800-
SOUTHEAST KENTUCKY

CITY           SKY/WX    TMP DP  RH WIND       PRES   REMARKS
JACKSON        PTSUNNY   74  59  59 SW9G20    30.33S
LONDON         PTSUNNY   71  60  68 SW10G21   30.36S
SOMERSET       CLOUDY    72  59  64 W16G26    30.37S
MIDDLESBORO    PTSUNNY   74  60  61 S7        30.37F
MONTICELLO     NOT AVBL
$$




USA.gov is the U.S. government's official web portal to all federal, state and local government web resources and services.